TimeEST,TemperatureF,Dew PointF,Humidity,Sea Level PressureIn,VisibilityMPH,Wind Direction,Wind SpeedMPH,Gust SpeedMPH,PrecipitationIn,Events,Conditions,WindDirDegrees,DateUTC
12:53 AM,28.9,25.0,85,30.41,7.0,Calm,Calm,-,N/A,,Clear,0,2012-11-15 05:53:00
1:53 AM,28.9,25.0,85,30.39,6.0,Calm,Calm,-,N/A,,Clear,0,2012-11-15 06:53:00
2:53 AM,28.0,24.1,85,30.38,8.0,Calm,Calm,-,N/A,,Clear,0,2012-11-15 07:53:00
3:53 AM,28.0,24.1,85,30.36,8.0,Calm,Calm,-,N/A,,Clear,0,2012-11-15 08:53:00
4:53 AM,27.0,24.1,89,30.36,6.0,North,5.8,-,N/A,,Clear,10,2012-11-15 09:53:00
5:53 AM,28.0,24.1,85,30.38,7.0,NNE,3.5,-,N/A,,Clear,20,2012-11-15 10:53:00
6:53 AM,26.1,23.0,88,30.38,7.0,Calm,Calm,-,N/A,,Clear,0,2012-11-15 11:53:00
7:53 AM,25.0,23.0,92,30.40,4.0,Calm,Calm,-,N/A,,Clear,0,2012-11-15 12:53:00
8:53 AM,30.0,28.0,92,30.40,5.0,Calm,Calm,-,N/A,,Clear,0,2012-11-15 13:53:00
9:53 AM,37.9,27.0,65,30.40,10.0,Calm,Calm,-,N/A,,Clear,0,2012-11-15 14:53:00
10:53 AM,39.9,26.1,58,30.40,10.0,Calm,Calm,-,N/A,,Clear,0,2012-11-15 15:53:00
11:53 AM,42.1,26.1,53,30.37,10.0,Calm,Calm,-,N/A,,Clear,0,2012-11-15 16:53:00
12:53 PM,42.1,27.0,55,30.35,10.0,Calm,Calm,-,N/A,,Clear,0,2012-11-15 17:53:00
1:53 PM,43.0,28.0,56,30.35,10.0,Variable,3.5,-,N/A,,Clear,0,2012-11-15 18:53:00
2:53 PM,43.0,28.0,56,30.33,10.0,Calm,Calm,-,N/A,,Clear,0,2012-11-15 19:53:00
3:53 PM,43.0,28.0,56,30.34,10.0,Calm,Calm,-,N/A,,Clear,0,2012-11-15 20:53:00
4:53 PM,41.0,30.0,65,30.34,10.0,South,3.5,-,N/A,,Clear,170,2012-11-15 21:53:00
5:53 PM,39.9,30.0,68,30.34,10.0,Calm,Calm,-,N/A,,Clear,0,2012-11-15 22:53:00
6:53 PM,37.0,28.9,73,30.35,6.0,Calm,Calm,-,N/A,,Haze,0,2012-11-15 23:53:00
7:53 PM,35.1,28.9,78,30.36,5.0,Calm,Calm,-,N/A,,Haze,0,2012-11-16 00:53:00
8:53 PM,33.1,28.9,85,30.36,9.0,Calm,Calm,-,N/A,,Clear,0,2012-11-16 01:53:00
9:53 PM,32.0,28.9,88,30.37,8.0,Calm,Calm,-,N/A,,Clear,0,2012-11-16 02:53:00
10:53 PM,28.9,27.0,92,30.37,6.0,Calm,Calm,-,N/A,,Clear,0,2012-11-16 03:53:00
11:53 PM,30.0,28.0,92,30.37,4.0,Calm,Calm,-,N/A,,Clear,0,2012-11-16 04:53:00